ORBCOMM FM06 1 25118U 97084G 26236.96353199 .00001044 00000+0 31927-3 0 9992 2 25118 45.0135 81.5797 0000028 17.4698 135.4360 14.47704365504359 ORBCOMM FM04 1 25159U 98007C 26236.95135553 .00000581 00000+0 24412-3 0 9990 2 25159 107.9614 310.9510 0041620 208.0139 151.8760 14.35834840486463 ORBCOMM FM19 1 25415U 98046C 26236.87658571 .00000598 00000+0 23500-3 0 9994 2 25415 44.9934 277.0264 0005666 279.0631 251.1545 14.39604524466671 ORBCOMM FM20 1 25416U 98046D 26236.50875835 .00000422 00000+0 18423-3 0 9993 2 25416 44.9940 287.4584 0002983 260.4779 99.5732 14.38147217466622 ORBCOMM FM27 1 25481U 98053G 26236.77037342 .00000692 00000+0 26679-3 0 9996 2 25481 45.0067 9.5752 0001938 203.0610 157.0152 14.39246342460116 ORBCOMM FM32 1 25982U 99065C 26236.69184762 .00000512 00000+0 21776-3 0 9990 2 25982 45.0140 208.9586 0006054 17.2138 342.8915 14.37213295396947 ORBCOMM FM109 1 40086U 14040A 26236.10507477 .00000298 00000+0 99240-4 0 9993 2 40086 47.0028 130.3627 0001233 197.5278 162.5565 14.58899351644266 ORBCOMM FM110 1 41182U 15081D 26236.45067661 .00000381 00000+0 11670-3 0 9994 2 41182 47.0026 38.6482 0002416 24.6932 335.4069 14.58965011567599 ORBCOMM FM118 1 41183U 15081E 26236.82797081 .00000399 00000+0 12047-3 0 9990 2 41183 47.0048 37.2155 0002750 338.6256 21.4515 14.58948639567757 ORBCOMM FM112 1 41184U 15081F 26236.89957773 .00000411 00000+0 12295-3 0 9994 2 41184 46.9997 305.3043 0002944 185.0310 175.0547 14.58937278568988 ORBCOMM FM113 1 41185U 15081G 26236.46791910 .00000223 00000+0 83252-4 0 9990 2 41185 47.0013 307.7607 0001789 195.9681 164.1148 14.58915153568905 ORBCOMM FM108 1 41187U 15081J 26236.36047615 .00000454 00000+0 13192-3 0 9998 2 41187 47.0036 219.8532 0001767 180.3251 179.7634 14.58955326570034 ORBCOMM FM117 1 41188U 15081K 26236.94293467 .00000237 00000+0 86217-4 0 9999 2 41188 47.0000 215.7166 0002348 185.5947 174.4913 14.58938517570168 ORBCOMM FM116 1 41189U 15081L 26236.92334452 .00000377 00000+0 11585-3 0 9998 2 41189 47.0029 305.6069 0001207 332.7234 27.3588 14.58941556568976